Home > Weather > Columbus > Past weeks

Flag for USA Past Weather in Columbus, Georgia, USA — Yesterday and Last 2 Weeks

Now
75 °F

Mostly cloudy.


Feels Like: 74 °F
Forecast: 72 / 92 °F
Wind: 5 mph from Southwest

Location: Columbus Metropolitan Airport

Current Time: Jul 1, 2016 at 6:05:02 AM

Latest Report: Jul 1, 2016 at 4:51 AM


Visibility: 10 mi

Pressure: 29.97 "Hg

Humidity: 90%

Dew Point: 72 °F

Location of ColumbusLocation

Past Weather in Columbus — Graph

°F

Columbus Temperature Yesterday

Maximum temperature yesterday: 91 °F (at 12:51 PM)
Minimum temperature yesterday: 73 °F (at 6:51 AM)
Average temperature yesterday: 79 °F

High & Low Weather Summary for the Past Weeks

 TemperatureHumidityPressure
High97 °F (Jun 17, 3:51 PM)100% (Jun 27, 5:59 AM)30.31 "Hg (Jun 27, 5:59 AM)
Low65 °F (Jun 21, 6:51 AM)28% (Jun 20, 3:51 PM)29.78 "Hg (Jun 17, 4:51 PM)
Average81 °F64%30.04 "Hg
* Reported Jun 16 4:51 AM — Jul 1 4:51 AM, Columbus, Weather by CustomWeather, © 2016

Note: Actual official high and low records may vary slightly from our data, if they occured in-between our weather recording intervals... More about our weather records

Advertising

Columbus Weather History for the Previous 24 Hours

Scroll right to see more
 ConditionsComfort  
Time TempWeatherWind HumidityBarometerVisibility
4:51 AM
Fri, Jul 1
75 °FMostly cloudy.5 mph90%29.97 "Hg10 mi
3:51 AM75 °FPassing clouds.3 mph90%29.97 "Hg10 mi
2:51 AM75 °FClear.5 mph90%29.96 "Hg10 mi
1:51 AM76 °FPassing clouds.6 mph88%29.97 "Hg10 mi
12:51 AM77 °FOvercast.7 mph85%29.97 "Hg10 mi
11:51 PM
Thu, Jun 30
77 °FPassing clouds.5 mph88%29.97 "Hg10 mi
10:51 PM78 °FClear.6 mph84%29.97 "Hg10 mi
9:51 PM78 °FClear.5 mph84%29.95 "Hg10 mi
8:51 PM79 °FSunny.5 mph82%29.94 "Hg10 mi
7:51 PM81 °FSunny.6 mph74%29.93 "Hg10 mi
6:51 PM81 °FSunny.No wind72%29.94 "Hg10 mi
5:51 PM79 °FSunny.6 mph74%29.94 "Hg10 mi
5:04 PM77 °FLight rain. Broken clouds.6 mph82%29.95 "Hg10 mi
4:51 PM77 °FThundershowers. Broken clouds.9 mph79%29.94 "Hg10 mi
3:51 PM82 °FThunderstorms. Broken clouds.18 mph67%29.93 "Hg10 mi
2:51 PM91 °FPassing clouds.5 mph44%29.92 "Hg10 mi
1:51 PM88 °FOvercast.3 mph52%29.93 "Hg10 mi
12:51 PM91 °FPassing clouds.N/A50%29.96 "Hg10 mi
11:51 AM86 °FSunny.3 mph57%29.97 "Hg10 mi
10:51 AM83 °FSunny.No wind65%29.96 "Hg10 mi
9:51 AM81 °FSunny.3 mph69%29.97 "Hg10 mi
8:51 AM78 °FSunny.No wind82%29.96 "Hg10 mi
7:51 AM74 °FSunny.3 mph91%29.95 "Hg10 mi
6:51 AM73 °FClear.3 mph94%29.95 "Hg10 mi
Weather by CustomWeather, © 2016

See weather overviewHow to use our weather pages